Regional Weather Roundup
Issued by NWS

Home | Current Version | Previous Version | Graphics & Text | Print | Product List | Glossary On
Versions: 1 2 3 4 5 6 7 8 9 10 11 12 13 14 15 16 17 18 19 20 21 22 23 24 25 26 27 28 29 30 31 32 33 34 35 36 37 38 39 40 41 42 43 44 45 46 47 48 49 50
419
ASUS45 KBOI 260010
RWRID

IDAHO REGIONAL WEATHER ROUNDUP
NATIONAL WEATHER SERVICE BOISE ID
600 PM MDT SUN SEP 25 2016

NOTE: "FAIR" INDICATES FEW OR NO CLOUDS BELOW 12000 FEET
WITH NO SIGNIFICANT WEATHER AND/OR OBSTRUCTIONS TO VISIBILITY

IDZ012-014-260100-
SOUTHWEST IDAHO


CITY           SKY/WX    TMP DP  RH WIND       PRES   REMARKS
BOISE          SUNNY     74  30  19 W8        30.37F
CALDWELL       SUNNY     75  32  20 W3        30.37F
MOUNTAIN HOME  SUNNY     75  24  15 NW7       30.37F
$$

IDZ016-017-260100-
SOUTHCENTRAL IDAHO


CITY           SKY/WX    TMP DP  RH WIND       PRES   REMARKS
BURLEY         SUNNY     65  36  34 VRB3      30.42F
JEROME         MOSUNNY   66  36  32 W5        30.43F
TWIN FALLS     MOSUNNY   67  33  28 W5        30.43F
$$

IDZ019>023-260100-
SOUTHEAST IDAHO


CITY           SKY/WX    TMP DP  RH WIND       PRES   REMARKS
IDAHO FALLS    SUNNY     64  36  35 S8        30.45F
POCATELLO      SUNNY     67  27  22 CALM      30.45F
REXBURG        SUNNY     62  36  37 SW6       30.45F
$$

IDZ006-010-011-018-031-032-260100-
CENTRAL IDAHO MOUNTAINS


CITY           SKY/WX    TMP DP  RH WIND       PRES   REMARKS
MCCALL         SUNNY     71  36  27 W10       30.45S
HAILEY         MOSUNNY   64  45  48 SE12      30.47F
STANLEY          N/A     71  38  29 NW8       30.50S
SALMON         SUNNY     70  37  30 CALM      30.39F
CHALLIS        SUNNY     70  36  28 SE5       30.42F
$$

IDZ002-004-006-007-026-260100-
NORTHERN IDAHO


CITY           SKY/WX    TMP DP  RH WIND       PRES   REMARKS
LEWISTON       SUNNY     80  33  18 CALM      30.34F
LOWELL           N/A     63  46  54 N3        30.36F
COEUR D`ALENE  NOT AVBL
MULLAN PASS    MOSUNNY   54  41  61 VRB3      30.51S
$$




USA.gov is the U.S. government's official web portal to all federal, state and local government web resources and services.